Weather History for PAAQ - October, 2012

Change the Weather History Date:

Tuesday, October 30, 2012

  Actual Average (PAJV) Record (PAJV)
Temperature  
Mean Temperature 24 °F -  
Max Temperature 32 °F 30 °F - (-1)
Min Temperature 19 °F 21 °F - (-1)
Degree Days  
Heating Degree Days 40    
Moisture  
Dew Point 17 °F    
Average Humidity 72    
Maximum Humidity 96    
Minimum Humidity 34    
Precipitation  
Precipitation 0.04 in - - ()
Sea Level Pressure  
Sea Level Pressure 29.65 in    
Wind  
Wind Speed 8 mph (NNE)    
Max Wind Speed 36 mph    
Max Gust Speed 50 mph    
Visibility 7 miles    
Events Snow    
Averages and records for this station are not official NWS values.
T = Trace of Precipitation, MM = Missing Value Source: NWS Daily Summary

Daily Weather History Graph

Daily Weather History Graph

Search for Another Location

Airport or City:

Trip Planner

Search our weather history database for the weather conditions in past years. The results will help you decide how hot, cold, wet, or windy it might be!

Date:

Astronomy

Oct. 30, 2012 Rise Set
Actual Time 9:22 AM AKDT 5:56 PM AKDT
Civil Twilight 8:34 AM AKDT 6:44 PM AKDT
Nautical Twilight 7:42 AM AKDT 7:35 PM AKDT
Astronomical Twilight 6:52 AM AKDT 8:26 PM AKDT
Moon 6:01 PM AKDT (10/30) 10:46 AM AKDT (10/30)
Length of Visible Light 10h 09m
Length of Day
8h 34m
Full, 99% of the Moon is Illuminated
Oct 30
Full
Nov 6
Last Quarter
Nov 13
New
Nov 20
First Quarter
Nov 28
Full

Hourly Weather History & Observations

Time (AKDT) Temp. Windchill Dew Point Humidity Pressure Visibility Wind Dir Wind Speed Gust Speed Precip Events Conditions
12:20 AM 26.6 °F 22.6 °F 23.0 °F 86% 29.77 in 2.0 mi West 3.5 mph - 0.00 in Snow Light Snow
12:27 AM 26.6 °F - 23.0 °F 86% 29.76 in 1.5 mi Calm Calm - 0.00 in Snow Light Snow
12:53 AM 26.1 °F - 23.0 °F 88% 29.78 in 1.2 mi Calm Calm - 0.00 in Snow Light Snow
1:06 AM 26.6 °F - 24.8 °F 93% 29.76 in 1.0 mi Calm Calm - 0.01 in Snow Light Snow
1:25 AM 26.6 °F - 24.8 °F 93% 29.76 in 1.0 mi Calm Calm - 0.02 in Snow Light Snow
1:53 AM 25.0 °F - 21.9 °F 88% 29.76 in 1.0 mi Calm Calm - 0.03 in Snow Light Snow
2:18 AM 24.8 °F - 21.2 °F 86% 29.74 in 2.5 mi Calm Calm - 0.01 in Snow Light Snow
2:38 AM 26.6 °F - 24.8 °F 93% 29.74 in 1.8 mi Calm Calm - 0.01 in Snow Light Snow
3:32 AM 26.6 °F - 23.0 °F 86% 29.73 in 1.8 mi Calm Calm - 0.00 in Snow Light Snow
3:53 AM 26.1 °F 21.9 °F 24.1 °F 92% 29.74 in 2.0 mi Variable 3.5 mph - 0.01 in Snow Light Snow
4:16 AM 24.8 °F 19.1 °F 21.2 °F 86% 29.72 in 3.0 mi SW 4.6 mph - 0.00 in Snow Light Snow
4:53 AM 25.0 °F - 21.9 °F 88% 29.73 in 6.0 mi Calm Calm - 0.00 in   Overcast
5:44 AM 24.8 °F - 21.2 °F 86% 29.70 in 10.0 mi Calm Calm - N/A   Overcast
5:53 AM 25.0 °F 20.7 °F 21.9 °F 88% 29.72 in 7.0 mi WSW 3.5 mph - N/A   Overcast
6:53 AM 24.1 °F 19.7 °F 21.9 °F 91% 29.70 in 10.0 mi West 3.5 mph - N/A   Overcast
7:53 AM 23.0 °F 15.8 °F 21.0 °F 92% 29.68 in 10.0 mi SSE 5.8 mph - N/A   Mostly Cloudy
8:14 AM 21.2 °F 14.9 °F 17.6 °F 86% 29.65 in 10.0 mi SE 4.6 mph - N/A   Mostly Cloudy
8:53 AM 19.0 °F 11.1 °F 18.0 °F 96% 29.65 in 10.0 mi East 5.8 mph - N/A   Mostly Cloudy
9:53 AM 21.9 °F - 18.0 °F 85% 29.64 in 10.0 mi Calm Calm - N/A   Mostly Cloudy
10:53 AM 21.9 °F 14.5 °F 17.1 °F 82% 29.63 in 10.0 mi Variable 5.8 mph - N/A   Mostly Cloudy
11:53 AM 26.1 °F 18.4 °F 17.1 °F 69% 29.61 in 10.0 mi East 6.9 mph - N/A   Mostly Cloudy
12:53 PM 30.9 °F 20.7 °F 16.0 °F 54% 29.60 in 10.0 mi North 13.8 mph 32.2 mph 0.00 in   Mostly Cloudy
1:53 PM 30.9 °F 16.2 °F 14.0 °F 50% 29.59 in 10.0 mi North 29.9 mph 40.3 mph N/A   Mostly Cloudy
2:53 PM 30.9 °F 16.2 °F 10.9 °F 43% 29.57 in 10.0 mi North 29.9 mph 49.5 mph N/A   Overcast
3:53 PM 30.0 °F 13.8 °F 10.9 °F 45% 29.56 in 10.0 mi NNE 35.7 mph 48.3 mph N/A   Mostly Cloudy
4:53 PM 30.0 °F 14.7 °F 10.9 °F 45% 29.55 in 10.0 mi NNE 31.1 mph 44.9 mph N/A   Mostly Cloudy
5:53 PM 28.9 °F 12.5 °F 10.0 °F 45% 29.54 in 10.0 mi NNE 34.5 mph 46.0 mph N/A   Mostly Cloudy
6:53 PM 28.9 °F 13.2 °F 9.0 °F 43% 29.52 in 10.0 mi NNE 31.1 mph 44.9 mph N/A   Clear
7:53 PM 28.0 °F 11.5 °F 10.9 °F 49% 29.53 in 10.0 mi NNE 33.4 mph 47.2 mph N/A   Clear
8:53 PM 28.0 °F 12.8 °F 9.0 °F 45% 29.54 in 10.0 mi NNE 27.6 mph 38.0 mph N/A   Clear
9:53 PM 27.0 °F 10.0 °F 9.0 °F 47% 29.52 in 10.0 mi NNE 33.4 mph 46.0 mph N/A   Clear
10:53 PM 28.0 °F 12.0 °F 6.1 °F 39% 29.52 in 10.0 mi NNE 31.1 mph 44.9 mph N/A   Clear
11:53 PM 27.0 °F 11.0 °F 1.9 °F 34% 29.51 in 9.0 mi NNE 28.8 mph 44.9 mph 0.00 in   Clear